Location: Newark
(36.1358°N, 115.1208°W)
Time: 15:58:56
(UTC+00:00)

X-37B - Visible Passes

Search period start: 23 September 2021 00:00
Search period end: 03 October 2021 00:00
Orbit: 381 x 393 km, 45.0° (Epoch: 29 August)

Date Brightness Start Highest point End Pass type
(mag) Time Alt. Az. Time Alt. Az. Time Alt. Az.
23 Sep 1.8 11:40:58 39° NE 11:40:58 39° NE 11:43:09 10° NE visible
24 Sep 2.1 12:17:36 21° NW 12:18:28 24° NNW 12:21:08 10° NE visible
25 Sep 3.4 11:21:55 17° NE 11:21:55 17° NE 11:22:53 10° NE visible
25 Sep 2.8 12:55:03 10° NW 12:57:10 16° N 12:59:18 10° NE visible
26 Sep 2.6 11:58:29 19° NNW 11:58:32 19° N 12:00:53 10° NE visible
27 Sep 3.0 12:35:14 10° NW 12:37:18 16° N 12:39:23 10° NE visible
28 Sep 3.2 11:39:20 15° NNE 11:39:20 15° NNE 11:40:46 10° NE visible
29 Sep 2.9 12:15:56 13° NNW 12:17:25 17° N 12:19:39 10° NE visible
30 Sep 3.8 11:20:17 12° NE 11:20:17 12° NE 11:20:50 10° NE visible
30 Sep 2.2 12:53:14 10° NW 12:56:04 29° NNE 12:58:54 10° E visible
01 Oct 2.6 11:56:59 20° N 11:57:30 21° NNE 12:00:02 10° ENE visible
02 Oct 1.4 12:33:46 16° NW 12:36:01 48° NNE 12:39:06 10° ESE visible
